Location: Arboyeti
(42.1122°N, 44.6017°E)
Time: 21:03:30
(UTC+00:00)

N. Korean satellite - Pass Details

Date: 29 September 2021
Orbit: 450 x 495 km, 97.3° (Epoch: 25 October)

Event Time Altitude Azimuth Distance (km) Brightness Sun altitude
Rises 01:39:37 0° 24° (NNE) 2,543 10.7 -15.0°
Reaches altitude 10° 01:41:55 10° 38° (NE) 1,667 10.0 -14.6°
Maximum altitude 01:44:58 26° 96° (E) 997 9.0 -14.0°
Drops below altitude 10° 01:48:02 10° 154° (SSE) 1,674 9.5 -13.5°
Sets 01:50:20 0° 167° (SSE) 2,556 10.3 -13.0°
